User: anonymous   Login
Location: *
(45.9500°N, 9.0833°E)
Time: 02:43:44
(UTC+00:00)
Language:

Cosmos 2322 Rocket - Orbit

View from above orbital plane
View from above orbital plane
View from above satellite
View from above satellite

Ground track
Ground track

The orbit data is extracted from the following two-line orbital elements,

1 23705U 95058B   21136.72779026 -.00000269  00000-0 -11391-3 0  9994
2 23705  71.0227 269.6914 0014915 277.6783  82.2646 14.15150883319125
Epoch (UTC): 16 May 2021 17:28:01
Eccentricity: 0.0014915
inclination: 71.0227°
perigee height: 831 km
apogee height: 852 km
right ascension of ascending node: 269.6914°
argument of perigee: 277.6783°
revolutions per day: 14.15150883
mean anomaly at epoch: 82.2646°
orbit number at epoch: 31912

The dashed part of the orbit path shows where the satellite is in the earth's shadow,  

DLR